Location: Ku?niki
(51.4449°N, 17.8974°E)
Time: 10:36:48
(UTC+00:00)

ERS-1 Rocket - Pass Details

Date: 18 September 2020
Orbit: 753 x 757 km, 98.5° (Epoch: 25 October)

Event Time Altitude Azimuth Distance (km) Brightness Sun altitude
Exits shadow 19:17:24 32° 67° (ENE) 1,288 3.9 -21.7°
Maximum altitude 19:17:35 32° 62° (ENE) 1,286 3.9 -21.8°
Drops below altitude 10° 19:22:02 10° 1° (N) 2,297 5.9 -22.3°
Sets 19:24:32 0° 352° (N) 3,227 6.9 -22.7°
